Tracking 17886 objects as of 9-December-2016
HD Live streaming from Space Station
objects crossing your sky now

TEAMSAT

Track TEAMSAT now!
10-day predictions
TEAMSAT is classified as:


NORAD ID: 25025
Int'l Code: 1997-066C
Perigee: 713.1 km
Apogee: 27,159.7 km
Inclination: 7.7 °
Period: 480.0 minutes
Semi major axis: 20307 km
RCS: 0.5073 m2 (medium)
Launch date: October 30, 1997
Source: European Space Agency (ESA)
Launch site: FRENCH GUIANA (FRGUI)
Your satellite tracking list
Your tracking list is empty





NASA's NSSDC Master Catalog

Two Line Element Set (TLE):
1 25025U 97066C   16341.40472998 -.00000018  00000-0  86520-4 0  9995
2 25025   7.6773 146.8295 6511581 238.5236  34.0443  3.07949346214984
Source of the keplerian elements: AFSPC